#timestamp,LO_Frequency,Hit,StdDev 
1512446415.3,286047000.9,N
1512446435.1,286047000.6,N
1512446455.9,286046998.2,N
1512446475.7,286047002.7,N
1512446495.5,286047000.2,N
1512446515.4,286047002.8,N
1512446535.2,286046999.8,N
1512446555.0,286046999.9,N
1512446556.0,286046999.9,N
1512446575.8,286047000.1,N
1512446595.6,286046999.8,N
1512446615.5,286047000.4,N
1512446635.3,286046998.9,N
1512446655.1,286046998.8,N
1512446675.9,286046999.6,N
1512446695.7,286046999.3,N
1512446715.5,286046996.7,N
1512446735.4,286046997.1,N
1512446755.2,286046997.4,N
1512446775.1,286046999.4,N
1512446776.0,286046999.4,N
1512446795.8,286046998.7,N
1512446815.6,286047002.4,N
1512446835.5,286047002.8,N
1512446855.3,286047002.3,N
1512446875.1,286047001.7,N
1512446895.9,286047004.2,N
1512446915.7,286047004.2,N
1512446935.6,286047002.0,N
1512446955.4,286047001.5,N
1512446975.2,286047001.6,N
1512446995.1,286046999.7,N
1512446996.0,286046999.7,N
1512447015.8,286047003.9,N
1512447035.6,286047002.5,N
1512447055.5,286047001.6,N
1512447075.3,286047001.4,N
1512447095.2,286047006.0,Y
1512447115.9,286047005.3,P
1512447135.7,286047003.1,N
1512447155.6,286047007.6,P
1512447175.4,286047005.0,N
1512447195.2,286047005.2,N
1512447215.1,286047005.7,N
1512447216.0,286047005.7,N
1512447235.8,286047005.9,N
1512447255.7,286047005.7,Y
1512447275.5,286047001.0,P
1512447295.3,286046998.4,N
1512447315.2,286046998.2,N
1512447335.0,286047000.9,N
1512447335.9,286047000.9,N
1512447355.8,286046998.6,N
1512447375.6,286047001.2,N
1512447395.4,286047001.1,N
1512447415.3,286046999.3,N
1512447435.1,286046999.2,N
1512447455.8,286046997.9,N
1512447475.7,286046997.3,N
1512447495.5,286046996.8,N
1512447515.3,286046998.4,N
1512447535.2,286047000.8,N
1512447555.0,286046998.4,N
1512447555.9,286046998.4,N
1512447575.8,286047001.2,N
1512447595.6,286046999.0,N
1512447615.4,286046998.8,N
1512447635.3,286046996.8,N
1512447655.1,286046997.3,N
1512447675.8,286046999.5,N
1512447695.7,286046998.4,N
1512447715.5,286046999.5,N
1512447735.4,286046995.3,N
1512447755.2,286046998.9,N
1512447775.0,286046998.7,N
1512447775.9,286046998.7,N
1512447795.8,286047000.5,N
1512447815.6,286046999.4,N
1512447835.4,286046998.7,N
1512447855.3,286047001.2,N
1512447875.1,286047002.7,N
1512447895.9,286047002.6,N
1512447915.7,286046998.3,N
1512447935.5,286046996.5,N
1512447955.4,286046995.1,N
1512447975.2,286046996.0,N
1512447995.0,286046996.2,N
1512447995.9,286046996.2,N
1512448015.8,286046995.3,N
1512448035.6,286046995.8,N
1512448055.5,286046995.1,N
1512448075.3,286046995.7,N
1512448095.1,286046997.5,N
1512448115.9,286046995.0,N
1512448135.7,286046997.6,N
1512448155.5,286046998.0,N
1512448175.4,286046995.3,N
1512448195.2,286046997.9,N
1512448215.1,286046997.9,N
1512448216.0,286046997.9,N
1512448235.8,286046998.0,N
1512448255.6,286046996.4,N
1512448275.5,286046996.3,N
1512448295.3,286046996.1,N
1512448315.1,286046995.6,N
1512448335.9,286046997.9,N
1512448355.7,286046996.2,N
1512448375.6,286046993.4,Y
1512448395.4,286046999.4,P
1512448415.2,286046998.3,N
1512448435.1,286046999.3,N
1512448436.0,286046999.3,N
1512448455.8,286047001.2,N
1512448475.6,286046998.2,N
1512448495.5,286046999.6,N
1512448515.3,286046997.2,N
1512448535.2,286046999.1,N
1512448555.9,286046998.6,N
1512448575.7,286046998.1,N
1512448595.6,286047000.1,N
1512448615.4,286046998.8,N
1512448635.2,286046998.7,N
1512448655.1,286047000.9,N
1512448656.0,286047000.9,N
1512448675.8,286046998.4,N
1512448695.7,286047000.7,N
1512448715.5,286047001.2,N
1512448735.3,286046998.5,N
1512448755.2,286047000.9,N
1512448775.0,286046999.9,N
1512448775.9,286046999.9,N
1512448795.7,286046999.9,N
1512448815.6,286046998.6,N
1512448835.4,286046998.6,N
1512448855.3,286046999.2,N
1512448875.1,286046997.8,N
1512448876.0,286046997.8,N
1512448895.8,286046995.1,Y
1512448915.7,286046997.2,P
1512448935.5,286046999.2,N
1512448955.3,286046998.2,N
1512448975.2,286046998.9,N
1512448995.0,286046999.3,N
1512448995.9,286046999.3,N
1512449015.8,286046998.7,N
1512449035.6,286047000.4,N
1512449055.4,286047001.1,N
1512449075.3,286046998.1,N
1512449095.1,286047001.1,N
1512449115.8,286046998.7,N
1512449135.7,286047000.3,N
1512449155.5,286047002.4,N
1512449175.4,286047000.8,N
1512449195.2,286047001.3,N
1512449215.0,286047001.4,N
1512449215.9,286047001.4,N
1512449235.8,286047003.7,N
1512449255.6,286047005.7,Y
1512449275.5,286047005.8,P
1512449295.3,286047005.7,N
1512449315.1,286047002.5,N
1512449335.9,286047000.5,N
1512449355.7,286046998.5,N
1512449375.5,286047001.0,N
1512449395.4,286047001.0,N
1512449415.2,286046998.3,N
1512449435.0,286047000.3,N
1512449436.0,286047000.3,N
1512449455.8,286047001.9,N
1512449475.6,286047003.9,N
1512449495.5,286047003.8,N
1512449515.3,286047002.0,N
1512449535.1,286047004.0,N
1512449555.9,286047003.7,N
1512449575.7,286047006.0,N
1512449595.5,286047003.1,N
1512449615.4,286047001.4,N
1512449635.2,286047003.5,N
1512449655.1,286047003.8,N
1512449656.0,286047003.8,N
1512449675.8,286047003.5,N
1512449695.6,286047004.2,N
1512449715.5,286047004.0,N
1512449735.3,286047005.9,N
1512449755.2,286047007.5,Y
1512449775.9,286047002.1,P
1512449795.7,286047000.2,N
1512449815.6,286047000.8,N
1512449835.4,286047000.4,N
1512449855.2,286047000.2,N
1512449875.1,286046999.8,N
1512449876.0,286046999.8,N
1512449895.8,286046999.7,N
1512449915.7,286047000.2,N
1512449935.5,286047000.3,N
1512449955.3,286046998.5,N
1512449975.2,286047000.9,N
1512449995.9,286046998.1,N
